Location: Jonesport
(44.5330°N, 67.5990°W)
Time: 15:14:22
(UTC-05:00)

Iridium 35 - Visible Passes

Search period start: 18 December 2014 00:00
Search period end: 28 December 2014 00:00
Orbit: 776 x 779 km, 86.4° (Epoch: 18 December)

Date Brightness Start Highest point End Pass type
(mag) Time Alt. Az. Time Alt. Az. Time Alt. Az.
18 Dec 7.3 03:37:14 16° SSE 03:37:14 16° SSE 03:38:20 10° SSE visible
18 Dec 7.2 05:17:47 10° SW 05:17:47 10° SW 05:17:49 10° SW visible
18 Dec 5.1 16:26:42 10° S 16:31:55 88° E 16:37:09 10° N visible
18 Dec 7.9 18:11:23 10° W 18:13:24 12° WNW 18:15:25 10° NW visible
19 Dec 7.5 17:35:32 10° SW 17:39:28 21° WNW 17:43:25 10° NNW visible
20 Dec 6.6 17:00:53 10° SSW 17:05:41 37° W 17:10:30 10° NNW visible
21 Dec 5.5 16:26:51 10° SSW 16:32:01 66° W 16:37:13 10° N visible
22 Dec 7.8 17:36:46 10° WSW 17:39:47 15° WNW 17:42:48 10° NW visible
23 Dec 7.2 17:01:33 10° SW 17:05:54 26° WNW 17:10:16 10° NNW visible
24 Dec 6.2 16:27:10 10° SSW 16:32:09 46° W 16:37:11 10° N visible
25 Dec 8.0 17:39:02 10° W 17:40:08 11° WNW 17:41:14 10° NW visible
26 Dec 7.6 17:02:30 10° WSW 17:06:10 19° WNW 17:09:51 10° NNW visible
27 Dec 6.8 16:27:41 10° SW 16:32:20 33° W 16:37:02 10° NNW visible
